This is the latest recevied weather packets stored in our database for station/object EA2FBA-10. If no packets are shown the sender has not sent any weather packets the latest 1 day(s).
| Time | Temp. | Humidity | Pressure | Rain* | Wind** | Luminosity | Snow |
|---|---|---|---|---|---|---|---|
| 1777748084 | 16.11° C | 64% | 952.7 hPa | - | - | - | - |
| 1777747184 | 16.67° C | 63% | 952.4 hPa | - | - | - | - |
| 1777746284 | 16.67° C | 63% | 952.3 hPa | - | - | - | - |
| 1777745384 | 16.67° C | 62% | 952.2 hPa | - | - | - | - |
| 1777744484 | 16.67° C | 63% | 952.3 hPa | - | - | - | - |
| 1777743584 | 17.22° C | 62% | 952.5 hPa | - | - | - | - |
| 1777742683 | 17.22° C | 63% | 952.5 hPa | - | - | - | - |
| 1777741783 | 17.22° C | 64% | 952.6 hPa | - | - | - | - |
| 1777740883 | 17.22° C | 63% | 952.7 hPa | - | - | - | - |
| 1777739983 | 17.78° C | 61% | 952.6 hPa | - | - | - | - |
| 1777739083 | 17.78° C | 60% | 953.4 hPa | - | - | - | - |
| 1777738183 | 17.78° C | 59% | 953.4 hPa | - | - | - | - |
| 1777737283 | 18.33° C | 58% | 953.2 hPa | - | - | - | - |
| 1777736383 | 18.89° C | 57% | 953 hPa | - | - | - | - |
| 1777735483 | 18.89° C | 56% | 953 hPa | - | - | - | - |
| 1777734583 | 19.44° C | 55% | 952.9 hPa | - | - | - | - |
| 1777733682 | 19.44° C | 55% | 953.1 hPa | - | - | - | - |
| 1777732782 | 18.89° C | 56% | 953.2 hPa | - | - | - | - |
| 1777731882 | 19.44° C | 55% | 953.3 hPa | - | - | - | - |
| 1777730982 | 20° C | 55% | 953.3 hPa | - | - | - | - |
| 1777730082 | 20° C | 54% | 953.2 hPa | - | - | - | - |
| 1777729182 | 20° C | 55% | 953.2 hPa | - | - | - | - |
| 1777728282 | 19.44° C | 56% | 953.5 hPa | - | - | - | - |
| 1777727382 | 19.44° C | 56% | 954 hPa | - | - | - | - |
| 1777726482 | 19.44° C | 57% | 953.4 hPa | - | - | - | - |
* Rain since midnight (hover to see other rain measurements)
** Current wind speed in m/s (hover to see current wind gust speed)